Location: Peebles
(55.6412°N, 3.1714°W)
Time: 11:47:19
(UTC+00:00)

CUTE-I - Pass Details

Date: 11 December 2023
Orbit: 807 x 823 km, 98.7° (Epoch: 24 February)

Event Time Altitude Azimuth Distance (km) Brightness Sun altitude
Rises 06:19:20 0° 18° (NNE) 3,367 ? -16.9°
Reaches altitude 10° 06:21:46 10° 24° (NNE) 2,432 ? -16.6°
Maximum altitude 06:27:01 50° 100° (E) 1,039 ? -15.9°
Drops below altitude 10° 06:32:13 10° 176° (S) 2,420 ? -15.2°
Sets 06:34:38 0° 181° (S) 3,349 ? -14.9°
